Scappoose, OR

7:20 PM PDT on May 27, 2017 (GMT -0700)
Scappoose Industrial

Weather History for KSPB - December, 2012

Change the Weather History Date:

Tuesday, December 4, 2012

  Actual Average Record
Temperature  
Mean Temperature 50 °F -  
Max Temperature 54 °F - 64 °F (2007)
Min Temperature 46 °F - 20 °F (2013)
Degree Days  
Heating Degree Days 15    
Month to date heating degree days 66  
Since 1 July heating degree days 1152  
Cooling Degree Days 0    
Month to date cooling degree days 0  
Year to date cooling degree days 245  
Moisture  
Dew Point 48 °F    
Average Humidity 95    
Maximum Humidity 100    
Minimum Humidity 89    
Precipitation  
Precipitation 0.49 in - 0.52 in (2003)
Month to date precipitation 2.08  
Year to date precipitation 47.95  
Sea Level Pressure  
Sea Level Pressure 29.77 in    
Wind  
Wind Speed 3 mph (SE)    
Max Wind Speed 12 mph    
Max Gust Speed 15 mph    
Visibility 9 miles    
Events Rain    
T = Trace of Precipitation, MM = Missing Value Source: NWS Daily Summary

Daily Weather History Graph

Daily Weather History Graph

Search for Another Location

Airport or City:

Trip Planner

Search our weather history database for the weather conditions in past years. The results will help you decide how hot, cold, wet, or windy it might be!

Date:

Astronomy

Dec. 04, 2012 Rise Set
Actual Time 7:36 AM PST 4:27 PM PST
Civil Twilight 7:02 AM PST 5:01 PM PST
Nautical Twilight 6:24 AM PST 5:38 PM PST
Astronomical Twilight 5:48 AM PST 6:14 PM PST
Moon 10:33 PM PST (12/4) 11:21 AM PST (12/4)
Length of Visible Light 9h 59m
Length of Day
8h 51m
Waning Gibbous, 68% of the Moon is Illuminated
Dec 4
Waning Gibbous
Dec 6
Last Quarter
Dec 13
New
Dec 19
First Quarter
Dec 28
Full

Hourly Weather History & Observations

Time (PST) Temp. Windchill Dew Point Humidity Pressure Visibility Wind Dir Wind Speed Gust Speed Precip Events Conditions
12:53 AM 46.0 °F 43.9 °F 44.1 °F 93% 29.62 in 4.0 mi SSW 4.6 mph - 0.17 in Rain Rain
1:00 AM 46.4 °F 45.2 °F 44.6 °F 93% 29.61 in 4.0 mi SSW 3.5 mph - 0.01 in Rain Light Rain
1:22 AM 46.4 °F 43.5 °F 44.6 °F 93% 29.60 in 4.0 mi South 5.8 mph - 0.06 in Rain Light Rain
1:33 AM 46.4 °F 42.9 °F 44.6 °F 93% 29.61 in 4.0 mi South 6.9 mph - 0.07 in Rain Light Rain
1:53 AM 46.0 °F 43.9 °F 44.1 °F 93% 29.61 in 4.0 mi Variable 4.6 mph - 0.11 in Rain Rain
2:21 AM 46.4 °F 43.5 °F 44.6 °F 93% 29.61 in 4.0 mi SE 5.8 mph - 0.02 in Rain Light Rain
2:53 AM 46.9 °F - 45.0 °F 93% 29.63 in 6.0 mi ESE 5.8 mph - 0.03 in Rain Light Rain
3:08 AM 48.2 °F - 46.4 °F 93% 29.64 in 8.0 mi East 4.6 mph - 0.00 in Rain Light Rain
3:25 AM 48.2 °F - 46.4 °F 93% 29.64 in 8.0 mi East 6.9 mph - 0.00 in Rain Light Rain
3:53 AM 48.9 °F - 46.9 °F 93% 29.66 in 10.0 mi ESE 6.9 mph - 0.00 in   Overcast
4:23 AM 50.0 °F - 48.2 °F 94% 29.66 in 10.0 mi ESE 9.2 mph - N/A   Overcast
4:53 AM 50.0 °F - 48.9 °F 96% 29.68 in 10.0 mi SSE 4.6 mph - N/A   Overcast
5:53 AM 51.1 °F - 48.9 °F 92% 29.69 in 10.0 mi SSE 4.6 mph - N/A   Overcast
6:53 AM 52.0 °F - 50.0 °F 93% 29.72 in 10.0 mi SE 8.1 mph - 0.00 in   Overcast
7:53 AM 52.0 °F - 50.0 °F 93% 29.74 in 10.0 mi ESE 9.2 mph - 0.01 in   Overcast
8:53 AM 53.1 °F - 51.1 °F 93% 29.79 in 8.0 mi West 3.5 mph - 0.00 in Rain Light Rain
9:29 AM 51.8 °F - 50.0 °F 94% 29.81 in 5.0 mi NNW 3.5 mph - 0.03 in Rain Light Rain
10:07 AM 51.8 °F - 51.8 °F 100% 29.82 in 10.0 mi Calm Calm - 0.00 in   Overcast
10:22 AM 51.8 °F - 50.0 °F 94% 29.82 in 10.0 mi North 4.6 mph - 0.00 in   Overcast
10:33 AM 51.8 °F - 51.8 °F 100% 29.82 in 10.0 mi Calm Calm - 0.00 in   Overcast
10:40 AM 53.6 °F - 51.8 °F 94% 29.82 in 10.0 mi Calm Calm - 0.00 in   Overcast
10:53 AM 53.1 °F - 51.1 °F 93% 29.81 in 10.0 mi Calm Calm - 0.00 in   Overcast
11:00 AM 53.6 °F - 51.8 °F 94% 29.81 in 10.0 mi Calm Calm - N/A   Overcast
11:08 AM 53.6 °F - 51.8 °F 94% 29.82 in 10.0 mi ESE 3.5 mph - N/A   Overcast
11:43 AM 53.6 °F - 50.0 °F 88% 29.81 in 10.0 mi SSE 5.8 mph - 0.00 in Rain Light Rain
11:53 AM 53.1 °F - 51.1 °F 93% 29.81 in 10.0 mi SE 5.8 mph - 0.00 in Rain Light Rain
12:14 PM 53.6 °F - 51.8 °F 94% 29.80 in 10.0 mi Calm Calm - 0.01 in Rain Light Rain
12:53 PM 53.1 °F - 51.1 °F 93% 29.79 in 6.0 mi Calm Calm - 0.02 in Rain Light Rain
1:48 PM 53.6 °F - 51.8 °F 94% 29.78 in 10.0 mi Calm Calm - 0.04 in Rain Light Rain
1:53 PM 54.0 °F - 53.1 °F 97% 29.78 in 10.0 mi Calm Calm - 0.04 in Rain Light Rain
2:53 PM 52.0 °F - 50.0 °F 93% 29.79 in 10.0 mi Calm Calm - 0.02 in Rain Light Rain
3:53 PM 52.0 °F - 50.0 °F 93% 29.81 in 10.0 mi Calm Calm - 0.02 in Rain Light Rain
4:02 PM 51.8 °F - 50.0 °F 94% 29.80 in 10.0 mi Calm Calm - 0.00 in Rain Light Rain
4:09 PM 51.8 °F - 50.0 °F 94% 29.80 in 10.0 mi ENE 3.5 mph - 0.01 in Rain Light Rain
4:36 PM 50.0 °F - 48.2 °F 94% 29.79 in 10.0 mi East 8.1 mph - 0.02 in Rain Light Rain
4:48 PM 48.2 °F - 46.4 °F 93% 29.80 in 10.0 mi SSE 3.5 mph - 0.03 in Rain Light Rain
4:53 PM 48.9 °F - 46.9 °F 93% 29.80 in 10.0 mi Calm Calm - 0.03 in Rain Light Rain
5:53 PM 48.0 °F - 46.0 °F 93% 29.79 in 10.0 mi Calm Calm - 0.00 in   Overcast
6:38 PM 48.2 °F - 46.4 °F 93% 29.80 in 10.0 mi Calm Calm - 0.01 in Rain Light Rain
6:53 PM 48.0 °F - 46.9 °F 96% 29.80 in 10.0 mi SSE 3.5 mph - 0.01 in Rain Light Rain
7:26 PM 48.2 °F - 46.4 °F 93% 29.80 in 10.0 mi NNE 3.5 mph - 0.00 in   Overcast
7:34 PM 48.2 °F - 46.4 °F 93% 29.80 in 10.0 mi Calm Calm - 0.00 in   Overcast
7:53 PM 48.0 °F - 46.9 °F 96% 29.81 in 10.0 mi Calm Calm - 0.00 in   Overcast
8:19 PM 48.2 °F - 46.4 °F 93% 29.82 in 10.0 mi Calm Calm - N/A   Overcast
8:53 PM 48.0 °F - 46.9 °F 96% 29.85 in 7.0 mi Calm Calm - 0.00 in Rain Light Rain
9:33 PM 48.2 °F - 46.4 °F 93% 29.86 in 9.0 mi Calm Calm - 0.01 in Rain Light Rain
9:53 PM 48.0 °F - 46.0 °F 93% 29.88 in 10.0 mi Calm Calm - 0.01 in   Overcast
10:53 PM 46.9 °F - 46.0 °F 97% 29.91 in 6.0 mi NW 5.8 mph - N/A   Overcast
11:53 PM 46.9 °F - 42.1 °F 83% 29.97 in 10.0 mi WNW 4.6 mph - 0.01 in   Overcast